AOJ12 LOWI-EDDM

Flight info

Callsign AOJ12
Flight time 0h 23m
Altitude 22000
Route MOGTI P66 NESES/N0405F210 T103 BETOS BETOS1B
Aircraft CL60/M-SBDE1E2E3FGHIJ1J4J5J7M3RWXYZ/LB1V1D1

Departure

Time 2026-05-06 18:16
Airport Innsbruck Airport (LOWI)

Arrival

Time 2026-05-06 18:40
Airport Munich Airport (EDDM)
Time Latitude Longitude Altitude Speed Heading
2026-05-06 17:59 47.25858 11.35346 1920 ft 0 kts 87°
2026-05-06 18:09 47.25858 11.35347 1920 ft 0 kts 86°
2026-05-06 18:09 47.25887 11.35347 1920 ft 8 kts 304°
2026-05-06 18:09 47.25903 11.35309 1920 ft 6 kts 307°
2026-05-06 18:10 47.25950 11.35278 1920 ft 7 kts 352°
2026-05-06 18:10 47.26008 11.35264 1919 ft 4 kts 351°
2026-05-06 18:10 47.26009 11.35264 1919 ft 0 kts 351°
2026-05-06 18:13 47.26036 11.35257 1919 ft 8 kts 350°
2026-05-06 18:13 47.26097 11.35243 1919 ft 4 kts 350°
2026-05-06 18:13 47.26114 11.35202 1919 ft 0 kts 259°
2026-05-06 18:16 47.26094 11.35020 1920 ft 67 kts 260°
2026-05-06 18:16 47.25964 11.33789 1975 ft 165 kts 259°
2026-05-06 18:16 47.25789 11.32052 2945 ft 180 kts 259°
2026-05-06 18:17 47.25604 11.30338 4253 ft 178 kts 258°
2026-05-06 18:17 47.25407 11.28546 5386 ft 194 kts 258°
2026-05-06 18:17 47.25372 11.26548 6602 ft 208 kts 284°
2026-05-06 18:17 47.25874 11.24568 7865 ft 219 kts 291°
2026-05-06 18:18 47.26487 11.22473 8870 ft 242 kts 292°
2026-05-06 18:18 47.27105 11.20376 9606 ft 254 kts 292°
2026-05-06 18:18 47.27810 11.18014 10419 ft 254 kts 291°
2026-05-06 18:18 47.28509 11.15641 11244 ft 253 kts 290°
2026-05-06 18:19 47.29202 11.13282 12085 ft 256 kts 290°
2026-05-06 18:19 47.29944 11.10737 13030 ft 278 kts 289°
2026-05-06 18:19 47.30521 11.07993 14023 ft 293 kts 272°
2026-05-06 18:19 47.30502 11.04864 14635 ft 322 kts 263°
2026-05-06 18:20 47.30360 11.01456 14836 ft 341 kts 264°
2026-05-06 18:20 47.30607 10.98002 14871 ft 345 kts 283°
2026-05-06 18:20 47.31588 10.94782 14913 ft 350 kts 298°
2026-05-06 18:20 47.33143 10.91987 14880 ft 357 kts 314°
2026-05-06 18:21 47.35210 10.89883 14881 ft 361 kts 330°
2026-05-06 18:21 47.37598 10.88718 14871 ft 367 kts 348°
2026-05-06 18:21 47.40173 10.88631 14843 ft 369 kts
2026-05-06 18:21 47.42641 10.89564 14836 ft 369 kts 17°
2026-05-06 18:22 47.45074 10.90739 14858 ft 370 kts 17°
2026-05-06 18:22 47.47549 10.91923 14864 ft 370 kts 17°
2026-05-06 18:22 47.49975 10.93084 14875 ft 360 kts 17°
2026-05-06 18:22 47.52295 10.94195 14858 ft 343 kts 17°
2026-05-06 18:23 47.54541 10.95271 14837 ft 337 kts 17°
2026-05-06 18:23 47.56770 10.96338 14830 ft 334 kts 17°
2026-05-06 18:23 47.58986 10.97400 14856 ft 334 kts 17°
2026-05-06 18:23 47.61209 10.98465 14818 ft 334 kts 17°
2026-05-06 18:24 47.63411 10.99521 14839 ft 335 kts 17°
2026-05-06 18:24 47.65631 11.00587 14811 ft 334 kts 17°
2026-05-06 18:24 47.67842 11.01649 14801 ft 334 kts 17°
2026-05-06 18:24 47.70079 11.02723 14788 ft 345 kts 17°
2026-05-06 18:25 47.72420 11.03848 14797 ft 367 kts 17°
2026-05-06 18:25 47.74952 11.05064 14790 ft 388 kts 17°
2026-05-06 18:25 47.77530 11.06307 14780 ft 395 kts 17°
2026-05-06 18:25 47.80036 11.07952 14795 ft 395 kts 32°
2026-05-06 18:26 47.82079 11.10633 14776 ft 395 kts 49°
2026-05-06 18:26 47.83896 11.13712 14781 ft 394 kts 50°
2026-05-06 18:26 47.85692 11.16750 14774 ft 394 kts 50°
2026-05-06 18:26 47.87496 11.19801 14789 ft 394 kts 49°
2026-05-06 18:27 47.89317 11.22883 14804 ft 394 kts 49°
2026-05-06 18:27 47.91130 11.25954 14773 ft 395 kts 50°
2026-05-06 18:27 47.92931 11.29007 14777 ft 394 kts 49°
2026-05-06 18:27 47.94743 11.32081 14791 ft 395 kts 49°
2026-05-06 18:28 47.96548 11.35147 14782 ft 394 kts 50°
2026-05-06 18:28 47.98375 11.38255 14766 ft 395 kts 49°
2026-05-06 18:28 48.00180 11.41326 14779 ft 394 kts 49°
2026-05-06 18:28 48.01991 11.44412 14775 ft 395 kts 50°
2026-05-06 18:29 48.03801 11.47498 14775 ft 395 kts 49°
2026-05-06 18:29 48.05613 11.50592 14760 ft 395 kts 49°
2026-05-06 18:29 48.07409 11.53661 14750 ft 394 kts 49°
2026-05-06 18:29 48.09217 11.56755 14761 ft 396 kts 49°
2026-05-06 18:30 48.11028 11.59855 14755 ft 395 kts 49°
2026-05-06 18:30 48.12849 11.62979 14758 ft 395 kts 49°
2026-05-06 18:30 48.14673 11.66111 14717 ft 395 kts 50°
2026-05-06 18:30 48.16501 11.69252 14354 ft 386 kts 50°
2026-05-06 18:31 48.18269 11.72294 13639 ft 382 kts 50°
2026-05-06 18:31 48.19993 11.75264 12859 ft 379 kts 50°
2026-05-06 18:31 48.21723 11.78247 12073 ft 375 kts 50°
2026-05-06 18:31 48.23420 11.81175 11293 ft 371 kts 51°
2026-05-06 18:32 48.25049 11.84115 10541 ft 365 kts 57°
2026-05-06 18:32 48.26155 11.87483 9853 ft 354 kts 75°
2026-05-06 18:32 48.26602 11.91092 9083 ft 347 kts 85°
2026-05-06 18:32 48.26856 11.94614 8390 ft 341 kts 85°
2026-05-06 18:33 48.27119 11.98154 7652 ft 336 kts 85°
2026-05-06 18:33 48.27372 12.01554 6974 ft 330 kts 84°
2026-05-06 18:33 48.27620 12.04919 6581 ft 315 kts 84°
2026-05-06 18:33 48.27855 12.08101 6220 ft 301 kts 84°
2026-05-06 18:34 48.28080 12.11148 5845 ft 291 kts 83°
2026-05-06 18:34 48.28676 12.14014 5467 ft 285 kts 59°
2026-05-06 18:34 48.30074 12.16042 5085 ft 277 kts 28°
2026-05-06 18:34 48.31913 12.16704 4699 ft 272 kts 358°
2026-05-06 18:35 48.33664 12.15880 4316 ft 267 kts 327°
2026-05-06 18:35 48.34875 12.13810 3978 ft 262 kts 298°
2026-05-06 18:35 48.35612 12.11397 3908 ft 247 kts 294°
2026-05-06 18:35 48.36275 12.09019 3920 ft 248 kts 290°
2026-05-06 18:36 48.36373 12.06511 3921 ft 237 kts 259°
2026-05-06 18:36 48.36121 12.04091 3925 ft 230 kts 270°
2026-05-06 18:36 48.36045 12.01709 3918 ft 229 kts 265°
2026-05-06 18:36 48.35879 11.99332 3855 ft 231 kts 265°
2026-05-06 18:37 48.35711 11.96910 3560 ft 233 kts 265°
2026-05-06 18:37 48.35544 11.94637 3327 ft 221 kts 265°
2026-05-06 18:37 48.35380 11.92432 3003 ft 198 kts 265°
2026-05-06 18:37 48.35235 11.90513 2800 ft 179 kts 265°
2026-05-06 18:38 48.35099 11.88689 2565 ft 174 kts 265°
2026-05-06 18:38 48.34981 11.87110 2365 ft 171 kts 265°
2026-05-06 18:38 48.34851 11.85402 2167 ft 151 kts 265°
2026-05-06 18:38 48.34738 11.83931 1996 ft 139 kts 264°
2026-05-06 18:39 48.34628 11.82525 1794 ft 130 kts 265°
2026-05-06 18:39 48.34533 11.81197 1618 ft 129 kts 265°
2026-05-06 18:39 48.34434 11.79878 1477 ft 122 kts 264°
2026-05-06 18:40 48.34368 11.78630 1481 ft 26 kts 289°
2026-05-06 18:40 48.34436 11.78386 1482 ft 18 kts 294°
2026-05-06 18:40 48.34465 11.78285 1482 ft 9 kts 294°
2026-05-06 18:40 48.34488 11.78207 1482 ft 10 kts 294°
2026-05-06 18:41 48.34526 11.78073 1482 ft 16 kts 294°
2026-05-06 18:41 48.34553 11.77889 1482 ft 19 kts 264°
2026-05-06 18:41 48.34536 11.77669 1483 ft 22 kts 264°
2026-05-06 18:41 48.34526 11.77484 1484 ft 14 kts 284°
2026-05-06 18:42 48.34595 11.77426 1484 ft 7 kts 354°
2026-05-06 18:42 48.34656 11.77416 1484 ft 6 kts 353°
2026-05-06 18:42 48.34719 11.77406 1484 ft 11 kts 354°
2026-05-06 18:42 48.34791 11.77362 1483 ft 13 kts 299°
2026-05-06 18:43 48.34790 11.77235 1484 ft 9 kts 262°
2026-05-06 18:43 48.34738 11.77204 1484 ft 7 kts 173°
2026-05-06 18:43 48.34705 11.77173 1484 ft 8 kts 262°
2026-05-06 18:43 48.34703 11.77140 1484 ft 0 kts 264°
2026-05-06 18:44 48.34703 11.77136 1484 ft 0 kts 263°